Weather History for Jefferson City, MO

Change the Weather History Date:

Thursday, November 22, 2012

  Actual Average Record
Temperature  
Mean Temperature 56 °F -  
Max Temperature 72 °F 53 °F 77 °F (1955)
Min Temperature 39 °F 28 °F 7 °F (1937)
Degree Days  
Heating Degree Days 10    
Growing Degree Days 6 (Base 50)    
Moisture  
Dew Point 42 °F    
Average Humidity 58    
Maximum Humidity 80    
Minimum Humidity 40    
Precipitation  
Precipitation 0.01 in - - ()
Sea Level Pressure  
Sea Level Pressure 29.99 in    
Wind  
Wind Speed 8 mph (SSE)    
Max Wind Speed 16 mph    
Max Gust Speed 26 mph    
Visibility 10 miles    
Events Rain    
Averages and records for this station are not official NWS values.
T = Trace of Precipitation, MM = Missing Value Source: NWS Daily Summary

Daily Weather History Graph

Daily Weather History Graph

Search for Another Location

Airport:

Trip Planner

Search our weather history database for the weather conditions in past years. The results will help you decide how hot, cold, wet, or windy it might be!

Date:

Astronomy

Nov. 22, 2012 Rise Set
Actual Time 6:58 AM CST 4:50 PM CST
Civil Twilight 6:29 AM CST 5:19 PM CST
Nautical Twilight 5:57 AM CST 5:52 PM CST
Astronomical Twilight 5:25 AM CST 6:23 PM CST
Moon 1:33 PM CST (11/22) 1:22 AM CST (11/22)
Length of Visible Light 10h 49m
Length of Day
9h 52m
Waxing Gibbous, 71% of the Moon is Illuminated
Nov 22
Waxing Gibbous
Nov 28
Full
Dec 6
Last Quarter
Dec 13
New
Dec 19
First Quarter

Hourly Weather History & Observations

Time (CST) Temp. Windchill Dew Point Humidity Pressure Visibility Wind Dir Wind Speed Gust Speed Precip Events Conditions
12:53 AM 43.0 °F 40.3 °F 35.1 °F 74% 30.06 in 10.0 mi East 4.6 mph - N/A   Clear
1:53 AM 39.9 °F 35.1 °F 34.0 °F 79% 30.05 in 10.0 mi ESE 6.9 mph - N/A   Clear
2:53 AM 46.0 °F 43.9 °F 37.0 °F 71% 30.04 in 10.0 mi East 4.6 mph - N/A   Clear
3:53 AM 46.0 °F 43.1 °F 37.9 °F 73% 30.02 in 10.0 mi ESE 5.8 mph - N/A   Clear
4:53 AM 43.0 °F 39.5 °F 37.0 °F 80% 30.01 in 10.0 mi ESE 5.8 mph - N/A   Clear
5:53 AM 48.9 °F - 39.9 °F 71% 29.99 in 10.0 mi ESE 6.9 mph - N/A   Clear
6:53 AM 50.0 °F - 41.0 °F 71% 29.99 in 10.0 mi ESE 6.9 mph - N/A   Clear
7:53 AM 53.1 °F - 41.0 °F 64% 30.00 in 10.0 mi ESE 9.2 mph - N/A   Clear
8:53 AM 57.9 °F - 41.0 °F 53% 30.00 in 10.0 mi South 9.2 mph - N/A   Clear
9:53 AM 62.1 °F - 41.0 °F 46% 29.98 in 10.0 mi South 10.4 mph - N/A   Clear
10:53 AM 66.0 °F - 42.1 °F 42% 29.97 in 10.0 mi South 8.1 mph 17.3 mph N/A   Clear
11:53 AM 69.1 °F - 44.1 °F 40% 29.93 in 10.0 mi South 10.4 mph 20.7 mph N/A   Clear
12:53 PM 69.1 °F - 44.1 °F 40% 29.90 in 10.0 mi South 8.1 mph - N/A   Clear
1:53 PM 72.0 °F - 46.0 °F 40% 29.87 in 10.0 mi South 11.5 mph 20.7 mph N/A   Clear
2:53 PM 72.0 °F - 46.0 °F 40% 29.86 in 10.0 mi SSW 11.5 mph - N/A   Mostly Cloudy
3:53 PM 71.1 °F - 46.0 °F 41% 29.88 in 10.0 mi SW 12.7 mph - N/A   Mostly Cloudy
4:53 PM 66.9 °F - 48.0 °F 51% 29.91 in 10.0 mi SW 12.7 mph 26.5 mph 0.00 in Rain Light Rain
5:53 PM 62.1 °F - 51.1 °F 67% 29.95 in 10.0 mi SSW 8.1 mph - 0.00 in   Overcast
6:53 PM 61.0 °F - 51.1 °F 70% 29.96 in 10.0 mi SSW 3.5 mph - N/A   Overcast
7:53 PM 60.1 °F - 50.0 °F 69% 29.96 in 10.0 mi Calm Calm - N/A   Overcast
8:53 PM 62.1 °F - 46.9 °F 58% 30.02 in 10.0 mi NW 10.4 mph 20.7 mph 0.00 in   Overcast
9:53 PM 55.9 °F - 37.0 °F 49% 30.09 in 10.0 mi NW 16.1 mph 24.2 mph 0.01 in   Scattered Clouds
10:53 PM 54.0 °F - 35.1 °F 49% 30.12 in 10.0 mi NW 16.1 mph 21.9 mph N/A   Overcast
11:53 PM 51.1 °F - 36.0 °F 56% 30.16 in 10.0 mi NW 11.5 mph 17.3 mph N/A   Mostly Cloudy